| time (UTC) | temp F | wind direction | speed MPH | gust MPH | rain 1hr in | rain 24hr in | rain mn in | humidity % | barometer mb |
| 20260506001031 | 73 | 305 | 11.0 | 19.0 | 0.00 | 0.17 | 0.00 | 28 | 1009.7 |
| 20260506000033 | 73 | 283 | 10.0 | 22.0 | 0.00 | 0.17 | 0.00 | 28 | 1009.3 |
| 20260505235050 | 74 | 292 | 10.0 | 27.0 | 0.00 | 0.17 | 0.00 | 27 | 1009.3 |
| 20260505234050 | 73 | 293 | 9.0 | 16.0 | 0.00 | 0.17 | 0.00 | 27 | 1009.3 |
| 20260505233048 | 73 | 292 | 9.0 | 18.0 | 0.00 | 0.17 | 0.00 | 28 | 1009.3 |
| 20260505232033 | 73 | 280 | 9.0 | 22.0 | 0.00 | 0.17 | 0.00 | 29 | 1009.3 |
| 20260505231033 | 73 | 278 | 10.0 | 28.0 | 0.00 | 0.17 | 0.00 | 29 | 1009.6 |
| 20260505230031 | 73 | 303 | 7.0 | 15.0 | 0.00 | 0.17 | 0.00 | 29 | 1009.8 |
| 20260505225033 | 73 | 279 | 8.0 | 18.0 | 0.00 | 0.17 | 0.00 | 30 | 1009.8 |
| 20260505224033 | 73 | 283 | 11.0 | 18.0 | 0.00 | 0.17 | 0.00 | 30 | 1009.8 |
| 20260505223033 | 72 | 280 | 6.0 | 10.0 | 0.00 | 0.17 | 0.00 | 31 | 1009.9 |
| 20260505222033 | 72 | 293 | 7.0 | 15.0 | 0.00 | 0.17 | 0.00 | 31 | 1009.9 |
| 20260505221033 | 72 | 290 | 7.0 | 13.0 | 0.00 | 0.17 | 0.00 | 32 | 1010.0 |
| 20260505220033 | 72 | 300 | 7.0 | 15.0 | 0.00 | 0.17 | 0.00 | 32 | 1010.2 |
| 20260505215031 | 72 | 283 | 5.0 | 10.0 | 0.00 | 0.17 | 0.00 | 33 | 1010.2 |
| 20260505214033 | 72 | 271 | 5.0 | 13.0 | 0.00 | 0.17 | 0.00 | 35 | 1010.3 |
| 20260505213050 | 71 | 279 | 9.0 | 19.0 | 0.00 | 0.17 | 0.00 | 38 | 1010.3 |
| 20260505212033 | 71 | 294 | 11.0 | 22.0 | 0.00 | 0.17 | 0.00 | 41 | 1010.3 |
| 20260505211107 | 70 | 293 | 11.0 | 19.0 | 0.00 | 0.17 | 0.00 | 43 | 1010.6 |
| 20260505210033 | 69 | 285 | 7.0 | 16.0 | 0.00 | 0.17 | 0.00 | 46 | 1011.0 |
| 20260505205031 | 69 | 298 | 7.0 | 16.0 | 0.00 | 0.17 | 0.00 | 46 | 1011.0 |
| 20260505204031 | 70 | 310 | 7.0 | 16.0 | 0.00 | 0.17 | 0.00 | 45 | 1010.8 |
| 20260505203033 | 71 | 305 | 5.0 | 12.0 | 0.00 | 0.17 | 0.00 | 43 | 1010.8 |
| 20260505202108 | 71 | 288 | 10.0 | 15.0 | 0.00 | 0.17 | 0.00 | 44 | 1010.8 |
| 20260505201033 | 70 | 288 | 4.0 | 10.0 | 0.00 | 0.17 | 0.00 | 47 | 1010.9 |
| 20260505200033 | 70 | 290 | 7.0 | 16.0 | 0.00 | 0.17 | 0.00 | 49 | 1011.1 |
| 20260505195033 | 69 | 284 | 8.0 | 15.0 | 0.00 | 0.17 | 0.00 | 52 | 1011.1 |
| 20260505194031 | 69 | 294 | 4.0 | 9.0 | 0.00 | 0.17 | 0.00 | 54 | 1011.4 |
| 20260505193031 | 68 | 297 | 5.0 | 13.0 | 0.00 | 0.17 | 0.00 | 55 | 1011.5 |
| 20260505192033 | 68 | 305 | 2.0 | 7.0 | 0.00 | 0.17 | 0.00 | 55 | 1011.5 |
| 20260505191033 | 68 | 290 | 3.0 | 9.0 | 0.00 | 0.17 | 0.00 | 55 | 1011.6 |
| 20260505190033 | 67 | 47 | 2.0 | 9.0 | 0.00 | 0.17 | 0.00 | 57 | 1012.0 |
| 20260505185107 | 66 | 16 | 0.0 | 3.0 | 0.00 | 0.17 | 0.00 | 59 | 1012.0 |
| 20260505184032 | 65 | 284 | 0.0 | 6.0 | 0.00 | 0.17 | 0.00 | 60 | 1012.5 |
| 20260505183031 | 65 | 52 | 1.0 | 7.0 | 0.00 | 0.17 | 0.00 | 61 | 1012.4 |
| 20260505182033 | 65 | 18 | 1.0 | 4.0 | 0.00 | 0.17 | 0.00 | 62 | 1012.4 |
| 20260505181033 | 64 | 48 | 0.0 | 3.0 | 0.00 | 0.17 | 0.00 | 63 | 1012.9 |
| 20260505180033 | 64 | 324 | 1.0 | 6.0 | 0.00 | 0.17 | 0.00 | 63 | 1013.0 |
| 20260505175050 | 63 | 73 | 0.0 | 6.0 | 0.00 | 0.17 | 0.00 | 64 | 1013.0 |
| 20260505174033 | 63 | 273 | 1.0 | 6.0 | 0.00 | 0.17 | 0.00 | 64 | 1013.0 |
| 20260505173033 | 63 | 277 | 0.0 | 4.0 | 0.00 | 0.17 | 0.00 | 64 | 1013.0 |
| 20260505172031 | 63 | 60 | 0.0 | 6.0 | 0.00 | 0.17 | 0.00 | 65 | 1013.0 |
| 20260505171033 | 63 | 67 | 0.0 | 3.0 | 0.00 | 0.17 | 0.00 | 65 | 1013.1 |
| 20260505170033 | 62 | 0 | 0.0 | 0.0 | 0.00 | 0.17 | 0.00 | 66 | 1013.0 |
| 20260505165033 | 62 | 292 | 2.0 | 7.0 | 0.00 | 0.17 | 0.00 | 67 | 1013.0 |
| 20260505164033 | 62 | 287 | 3.0 | 7.0 | 0.00 | 0.17 | 0.00 | 68 | 1012.8 |
| 20260505163033 | 61 | 299 | 3.0 | 9.0 | 0.00 | 0.17 | 0.00 | 69 | 1013.0 |
| 20260505162050 | 61 | 283 | 5.0 | 10.0 | 0.00 | 0.17 | 0.00 | 72 | 1013.0 |
| 20260505161031 | 61 | 282 | 2.0 | 7.0 | 0.00 | 0.17 | 0.00 | 75 | 1013.0 |
| 20260505153033 | 59 | 271 | 3.0 | 7.0 | 0.00 | 0.17 | 0.00 | 83 | 1012.7 |
| 20260505152033 | 59 | 275 | 1.0 | 3.0 | 0.00 | 0.17 | 0.00 | 85 | 1012.7 |
| 20260505151031 | 59 | 286 | 1.0 | 3.0 | 0.00 | 0.17 | 0.00 | 85 | 1012.6 |
| 20260505125031 | 56 | 0 | 0.0 | 0.0 | 0.00 | 0.17 | 0.00 | 88 | 1011.6 |
| 20260505124032 | 56 | 0 | 0.0 | 0.0 | 0.00 | 0.17 | 0.00 | 89 | 1011.4 |
| 20260505123033 | 56 | 56 | 0.0 | 1.0 | 0.00 | 0.17 | 0.00 | 89 | 1010.9 |
| 20260505122033 | 57 | 54 | 0.0 | 1.0 | 0.00 | 0.17 | 0.00 | 90 | 1010.9 |
| 20260505121033 | 57 | 54 | 0.0 | 3.0 | 0.00 | 0.17 | 0.00 | 90 | 1010.9 |
| 20260505120050 | 57 | 44 | 0.0 | 4.0 | 0.00 | 0.17 | 0.00 | 90 | 1010.3 |
| 20260505115033 | 57 | 353 | 0.0 | 1.0 | 0.00 | 0.17 | 0.00 | 90 | 1010.3 |
| 20260505114033 | 57 | 7 | 0.0 | 6.0 | 0.00 | 0.17 | 0.00 | 89 | 1010.8 |
| 20260505113031 | 57 | 69 | 1.0 | 4.0 | 0.00 | 0.17 | 0.00 | 90 | 1010.6 |
| 20260505112033 | 56 | 23 | 0.0 | 1.0 | 0.00 | 0.17 | 0.00 | 89 | 1010.6 |
| 20260505111033 | 57 | 22 | 0.0 | 1.0 | 0.00 | 0.16 | 0.00 | 89 | 1010.8 |
| 20260505102050 | 57 | 35 | 4.0 | 10.0 | 0.14 | 0.14 | 0.00 | 87 | 1011.1 |
| 20260505101033 | 57 | 34 | 7.0 | 16.0 | 0.00 | 0.11 | 0.00 | 87 | 1010.8 |
| 20260505100107 | 58 | 36 | 7.0 | 13.0 | 0.00 | 0.11 | 0.00 | 86 | 1010.7 |
| 20260505095033 | 58 | 22 | 5.0 | 9.0 | 0.00 | 0.11 | 0.00 | 84 | 1010.7 |
| 20260505094033 | 58 | 354 | 4.0 | 10.0 | 0.00 | 0.11 | 0.00 | 83 | 1011.0 |
| 20260505093033 | 58 | 16 | 3.0 | 7.0 | 0.00 | 0.11 | 0.00 | 82 | 1011.1 |
| 20260505092031 | 58 | 37 | 4.0 | 9.0 | 0.00 | 0.10 | 0.00 | 83 | 1011.1 |
| 20260505091033 | 58 | 42 | 3.0 | 10.0 | 0.00 | 0.10 | 0.00 | 84 | 1011.0 |
| 20260505090033 | 58 | 5 | 1.0 | 7.0 | 0.04 | 0.10 | 0.00 | 85 | 1011.7 |
| 20260505085033 | 57 | 18 | 2.0 | 6.0 | 0.04 | 0.10 | 0.00 | 86 | 1011.7 |
| 20260505084050 | 57 | 3 | 4.0 | 9.0 | 0.05 | 0.09 | 0.00 | 87 | 1012.3 |
| 20260505083033 | 58 | 356 | 2.0 | 6.0 | 0.13 | 0.09 | 0.00 | 87 | 1012.6 |
| 20260505082033 | 58 | 2 | 4.0 | 10.0 | 0.06 | 0.07 | 0.00 | 86 | 1012.6 |
| 20260505081031 | 58 | 13 | 4.0 | 9.0 | 0.04 | 0.06 | 0.00 | 86 | 1013.1 |
| 20260505080050 | 58 | 15 | 3.0 | 7.0 | 0.04 | 0.05 | 0.00 | 86 | 1013.1 |
| 20260505075033 | 58 | 6 | 4.0 | 9.0 | 0.11 | 0.05 | 0.00 | 87 | 1013.1 |
| 20260505074033 | 58 | 14 | 3.0 | 9.0 | 0.09 | 0.03 | 0.00 | 87 | 1013.5 |
| 20260505073033 | 58 | 54 | 0.0 | 1.0 | 0.06 | 0.02 | 0.00 | 88 | 1013.5 |
| 20260505072050 | 58 | 0 | 0.0 | 0.0 | 0.00 | 0.01 | 0.00 | 87 | 1013.5 |
| 20260505071033 | 58 | 0 | 0.0 | 0.0 | 0.06 | 0.20 | 0.00 | 87 | 1013.4 |
| 20260505070031 | 58 | 80 | 0.0 | 1.0 | 0.06 | 0.19 | 0.00 | 87 | 1013.4 |
| 20260505065033 | 58 | 0 | 0.0 | 0.0 | 0.06 | 0.19 | 0.00 | 86 | 1013.4 |
| 20260505064033 | 59 | 0 | 0.0 | 0.0 | 0.06 | 0.17 | 0.00 | 86 | 1013.5 |
| 20260505063033 | 59 | 0 | 0.0 | 0.0 | 0.06 | 0.17 | 0.00 | 85 | 1013.7 |
| 20260505062033 | 59 | 80 | 0.0 | 1.0 | 0.00 | 0.15 | 0.00 | 84 | 1013.7 |
| 20260505061033 | 59 | 80 | 0.0 | 3.0 | 0.04 | 0.15 | 0.00 | 83 | 1013.8 |
| 20260505060048 | 59 | 53 | 1.0 | 3.0 | 0.04 | 0.15 | 0.00 | 83 | 1013.5 |
| 20260505055031 | 59 | 6 | 0.0 | 4.0 | 0.00 | 0.14 | 0.00 | 83 | 1013.5 |
| 20260505054050 | 58 | 33 | 1.0 | 4.0 | 0.00 | 0.14 | 0.00 | 83 | 1013.6 |
| 20260505053033 | 58 | 45 | 2.0 | 7.0 | 0.00 | 0.13 | 0.00 | 83 | 1013.4 |
| 20260505052033 | 58 | 41 | 2.0 | 6.0 | 0.00 | 0.13 | 0.00 | 84 | 1013.4 |
| 20260505051033 | 57 | 35 | 0.0 | 3.0 | 0.00 | 0.13 | 0.00 | 84 | 1013.5 |
| 20260505041033 | 60 | 88 | 2.0 | 9.0 | 0.08 | 0.09 | 0.00 | 71 | 1013.7 |
| 20260505040033 | 61 | 272 | 2.0 | 6.0 | 0.00 | 0.08 | 0.00 | 67 | 1013.4 |
| 20260505035033 | 62 | 284 | 4.0 | 7.0 | 0.00 | 0.07 | 0.00 | 65 | 1013.4 |
| 20260505034050 | 62 | 298 | 3.0 | 7.0 | 0.00 | 0.07 | 0.00 | 64 | 1012.4 |
| 20260505033048 | 61 | 83 | 3.0 | 7.0 | 0.00 | 0.07 | 0.00 | 63 | 1012.2 |
| 20260505032033 | 61 | 356 | 2.0 | 13.0 | 0.00 | 0.07 | 0.00 | 63 | 1012.2 |
| 20260505031033 | 60 | 352 | 3.0 | 7.0 | 0.00 | 0.07 | 0.00 | 62 | 1012.8 |
| 20260505030050 | 60 | 56 | 2.0 | 6.0 | 0.00 | 0.07 | 0.00 | 62 | 1012.8 |
| 20260505025033 | 59 | 1 | 3.0 | 7.0 | 0.00 | 0.06 | 0.00 | 64 | 1012.8 |
| 20260505024033 | 59 | 1 | 4.0 | 10.0 | 0.00 | 0.06 | 0.00 | 70 | 1013.1 |
| 20260505023048 | 59 | 353 | 4.0 | 9.0 | 0.00 | 0.06 | 0.00 | 71 | 1013.7 |
| 20260505022031 | 59 | 342 | 4.0 | 9.0 | 0.04 | 0.06 | 0.00 | 72 | 1013.7 |
| 20260505021033 | 60 | 12 | 0.0 | 1.0 | 0.05 | 0.06 | 0.00 | 73 | 1014.0 |
| 20260505020033 | 61 | 12 | 0.0 | 3.0 | 0.09 | 0.05 | 0.00 | 71 | 1013.9 |
| 20260505015033 | 62 | 0 | 0.0 | 0.0 | 0.06 | 0.04 | 0.00 | 66 | 1013.9 |
| 20260505014033 | 63 | 0 | 0.0 | 0.0 | 0.10 | 0.03 | 0.00 | 60 | 1014.0 |
| 20260505013033 | 64 | 36 | 1.0 | 7.0 | 0.00 | 0.01 | 0.00 | 52 | 1013.4 |
| 20260505012031 | 65 | 33 | 1.0 | 6.0 | 0.00 | 0.01 | 0.00 | 50 | 1013.4 |
| 20260505011033 | 65 | 33 | 3.0 | 6.0 | 0.00 | 0.01 | 0.00 | 47 | 1012.7 |
| 20260505010033 | 66 | 78 | 4.0 | 10.0 | 0.00 | 0.01 | 0.00 | 45 | 1012.9 |
| 20260505005033 | 67 | 73 | 4.0 | 7.0 | 0.00 | 0.01 | 0.00 | 41 | 1012.9 |
| 20260505004033 | 68 | 35 | 2.0 | 6.0 | 0.00 | 0.01 | 0.00 | 39 | 1012.7 |
| 20260505003033 | 68 | 71 | 5.0 | 13.0 | 0.00 | 0.01 | 0.00 | 39 | 1012.6 |
| 20260505002033 | 68 | 54 | 3.0 | 9.0 | 0.00 | 0.01 | 0.00 | 41 | 1012.6 |